Date,TemperatureHighF,TemperatureAvgF,TemperatureLowF,DewpointHighF,DewpointAvgF,DewpointLowF,HumidityHigh,HumidityAvg,HumidityLow,PressureMaxIn,PressureMinIn,WindSpeedMaxMPH,WindSpeedAvgMPH,GustSpeedMaxMPH,PrecipitationSumIn
2013-1-1,19.8,10.6,-5.3,21.2,19.3,17.1,91,85,72,30.79,30.62,6,1,7,0.00
2013-1-2,19.4,3.3,-6.2,19.4,17.2,14.9,88,82,60,30.92,30.79,11,-11,12,0.00
2013-1-3,20.1,2.8,-7.4,19.4,15.9,12.9,86,80,60,30.92,30.84,13,4,15,0.00
2013-1-4,20.8,4.4,-4.4,19.0,15.5,12.7,87,79,58,30.84,30.74,11,4,12,0.00
2013-1-5,25.5,6.1,-5.3,17.6,14.9,12.9,86,76,52,30.91,30.69,12,5,14,0.00
2013-1-6,30.7,16.6,3.9,17.8,16.4,15.1,92,79,60,30.69,30.35,13,4,14,0.00
2013-1-7,19.6,11.3,-0.2,19.4,15.8,12.9,93,87,82,30.50,30.41,8,2,9,0.00
2013-1-8,26.4,22.9,18.9,22.6,19.6,17.1,96,95,93,30.53,30.40,7,1,8,0.00
2013-1-9,40.3,31.7,26.4,25.7,23.8,20.7,97,89,74,30.53,29.85,11,2,13,0.16
2013-1-10,36.9,27.4,18.9,28.4,24.6,22.1,97,91,85,29.86,29.61,32,7,34,0.00
2013-1-11,18.9,11.8,1.8,22.6,20.5,17.1,92,83,70,30.28,29.69,15,4,16,0.00
2013-1-12,6.3,-2.9,-15.7,17.4,14.5,12.7,87,81,66,30.61,30.28,10,3,12,0.00
2013-1-13,4.1,-9.1,-18.8,13.3,10.5,7.7,87,81,70,30.83,30.60,12,4,13,0.00
2013-1-14,4.3,-4.0,-17.5,13.1,7.9,3.2,86,83,76,30.91,30.82,8,3,9,0.00
2013-1-15,12.2,7.0,1.2,13.3,10.4,7.7,88,83,77,31.03,30.90,10,2,11,0.00
2013-1-16,22.1,14.0,8.8,13.3,12.0,10.6,89,85,74,31.04,30.95,11,2,11,0.00
2013-1-17,20.1,6.3,-2.6,15.6,12.3,8.1,89,81,62,31.01,30.88,14,5,14,0.00
2013-1-18,25.5,6.1,-4.4,15.6,11.1,7.7,91,83,60,30.93,30.81,12,2,13,0.00
2013-1-19,26.2,6.6,-3.1,13.6,9.8,5.7,90,81,59,30.96,30.84,12,4,12,0.00
2013-1-20,28.2,9.2,-1.7,13.6,10.1,8.1,89,80,56,30.90,30.79,9,3,10,0.00
2013-1-21,25.9,8.5,-1.1,13.6,10.0,5.4,89,79,58,30.85,30.71,12,4,13,0.00
2013-1-22,29.8,10.4,-2.4,15.6,11.5,5.7,89,78,53,30.79,30.68,12,4,13,0.01
2013-1-23,32.4,20.5,9.3,24.4,16.3,13.1,85,76,57,30.68,30.41,11,4,12,0.00
2013-1-24,34.3,28.4,18.3,23.0,19.8,15.4,97,89,79,30.44,30.36,10,2,11,0.07
2013-1-25,38.3,34.3,32.2,24.6,23.7,22.6,98,95,87,30.44,30.15,8,1,8,0.23
2013-1-26,37.6,34.6,32.9,26.1,25.2,24.3,98,96,92,30.16,29.85,7,2,8,0.28
2013-1-27,34.7,29.4,24.1,26.1,25.4,24.3,98,97,95,29.94,29.79,17,6,19,0.04
2013-1-28,26.1,21.0,13.5,25.7,23.4,22.5,96,91,77,30.10,29.93,16,5,20,0.00
2013-1-29,29.7,19.9,15.4,24.4,22.4,20.8,95,87,66,30.33,29.98,11,2,14,0.00
2013-1-30,31.8,24.7,17.4,24.6,22.9,21.0,96,91,83,30.32,30.24,11,2,14,0.01
2013-1-31,34.2,29.9,20.5,25.9,24.7,22.5,97,92,85,30.44,30.30,23,5,23,0.04